Карточка аэропорта UNNT

Внимание!
Информация на этой странице в стадии наполнения.
Если вы не увидели какой-то информации, или заметили неточность - пожалуйста сообщите нам!
Спасибо!
Команда RU-STAFF
Название аэропортаТолмачево
Название аэропорта (англ.)Tolmachevo
Превышение367 ft. (111.9 m.)
Координаты55°0.77999999999989', 82°38.178'
Высота перехода6000ft
Эшелон переходаQNH>=1013hPa:FL70; QNH<1013hPa:FL80; QNH<977hPa:FL90
Коды ответчика5201-5227
Зона ОрВДНовосибирск РПИ (UNNT)
Данные METARUNNT 121330Z 02001MPS CAVOK 25/15 Q1007 R07/090070 R34/////// NOSIG RMK QFE746/0994
Проноз погоды (TAF)UNNT 121100Z 1212/1312 13003G08MPS 8000 SCT040 TX28/1309Z TN15/1222Z BECMG 1223/1303 08003G08MPS BKN040CB TEMPO 1305/1312 02003G08MPS -SHRA
NOTAMshow/hide NOTAM
AWOS   TABLE

Информация о ВПП

ВПП Длина ВПП (м.) Покрытие Курс ВПП Частота ILS
163602Цементобетон161109.7
343602Цементобетон341111.1
073597Асфальтобетон72110.1
253597Асфальтобетон252108.5

Диспетчерские позиции

Позывной Наименование органа УВД Частота
UNNT_TWRНовосибирск-Вышка118.5
UNNT_R_APPНовосибирск-Круг122.0
UNNT_GNDНовосибирск-Руление121.7
UNNT_DEL Новосибирск-Деливери135.4
UNNT_APPНовосибирск-Подход127.5



Спутниковое изображение